CSJ672 KCAK-CYHM

Flight info

Callsign CSJ672
Flight time 0h 58m
Altitude 7000
Route DCT
Aircraft C208/L-SDFGR/C

Departure

Time 2026-05-09 01:34
Airport Akron Canton Regional Airport (KCAK)

Arrival

Time 2026-05-09 02:33
Airport John C. Munro Hamilton International Airport (CYHM)
Time Latitude Longitude Altitude Speed Heading
2026-05-09 01:13 40.90740 -81.43907 1221 ft 0 kts 70°
2026-05-09 01:23 40.90756 -81.43890 1221 ft 6 kts
2026-05-09 01:23 40.90821 -81.43889 1221 ft 12 kts
2026-05-09 01:23 40.90877 -81.43885 1221 ft 0 kts 359°
2026-05-09 01:24 40.90880 -81.43885 1221 ft 1 kts 358°
2026-05-09 01:24 40.90896 -81.43912 1221 ft 7 kts 276°
2026-05-09 01:25 40.90918 -81.43979 1220 ft 8 kts 355°
2026-05-09 01:25 40.90977 -81.43976 1221 ft 11 kts
2026-05-09 01:25 40.91069 -81.43971 1221 ft 16 kts
2026-05-09 01:25 40.91181 -81.43945 1221 ft 14 kts 22°
2026-05-09 01:26 40.91277 -81.43890 1221 ft 17 kts 22°
2026-05-09 01:26 40.91383 -81.43894 1222 ft 16 kts 326°
2026-05-09 01:26 40.91498 -81.43941 1221 ft 19 kts 359°
2026-05-09 01:26 40.91632 -81.43887 1221 ft 21 kts 35°
2026-05-09 01:27 40.91688 -81.43765 1221 ft 14 kts 77°
2026-05-09 01:27 40.91755 -81.43661 1221 ft 16 kts 47°
2026-05-09 01:27 40.91835 -81.43562 1221 ft 14 kts 28°
2026-05-09 01:27 40.91909 -81.43510 1221 ft 11 kts 29°
2026-05-09 01:28 40.91953 -81.43479 1221 ft 0 kts 17°
2026-05-09 01:30 40.91954 -81.43478 1221 ft 2 kts 17°
2026-05-09 01:30 40.91968 -81.43478 1221 ft 6 kts 351°
2026-05-09 01:31 40.92021 -81.43546 1221 ft 15 kts 279°
2026-05-09 01:31 40.92010 -81.43574 1221 ft 0 kts 226°
2026-05-09 01:33 40.91996 -81.43595 1221 ft 11 kts 227°
2026-05-09 01:33 40.91829 -81.43828 1219 ft 59 kts 226°
2026-05-09 01:33 40.91478 -81.44312 1278 ft 80 kts 227°
2026-05-09 01:34 40.91099 -81.44844 1457 ft 79 kts 225°
2026-05-09 01:34 40.90724 -81.45374 1640 ft 78 kts 229°
2026-05-09 01:34 40.90369 -81.45932 1744 ft 87 kts 232°
2026-05-09 01:34 40.89957 -81.46582 1927 ft 94 kts 232°
2026-05-09 01:35 40.89490 -81.47329 2044 ft 113 kts 232°
2026-05-09 01:35 40.88937 -81.48109 2215 ft 119 kts 231°
2026-05-09 01:35 40.88343 -81.48888 2372 ft 122 kts 229°
2026-05-09 01:35 40.87742 -81.49693 2517 ft 124 kts 231°
2026-05-09 01:36 40.87131 -81.50476 2701 ft 121 kts 230°
2026-05-09 01:36 40.86520 -81.51249 2885 ft 122 kts 230°
2026-05-09 01:36 40.85915 -81.52028 3091 ft 120 kts 232°
2026-05-09 01:36 40.85752 -81.53030 3285 ft 121 kts 287°
2026-05-09 01:37 40.86493 -81.53656 3491 ft 147 kts 346°
2026-05-09 01:37 40.87486 -81.53105 3686 ft 167 kts 36°
2026-05-09 01:37 40.88329 -81.52053 3898 ft 166 kts 37°
2026-05-09 01:37 40.89165 -81.51015 4103 ft 165 kts 37°
2026-05-09 01:38 40.90006 -81.49972 4312 ft 167 kts 38°
2026-05-09 01:38 40.90852 -81.48918 4519 ft 168 kts 38°
2026-05-09 01:38 40.91697 -81.47874 4720 ft 169 kts 37°
2026-05-09 01:38 40.92566 -81.46806 4924 ft 171 kts 38°
2026-05-09 01:39 40.93440 -81.45736 5125 ft 172 kts 37°
2026-05-09 01:39 40.94314 -81.44649 5329 ft 172 kts 38°
2026-05-09 01:39 40.95187 -81.43563 5531 ft 172 kts 37°
2026-05-09 01:39 40.96062 -81.42478 5736 ft 172 kts 38°
2026-05-09 01:40 40.96942 -81.41399 5942 ft 173 kts 37°
2026-05-09 01:40 40.97846 -81.40290 6016 ft 183 kts 38°
2026-05-09 01:40 40.98804 -81.39119 6016 ft 191 kts 38°
2026-05-09 01:40 40.99798 -81.37916 6020 ft 196 kts 38°
2026-05-09 01:41 41.00813 -81.36687 6020 ft 199 kts 38°
2026-05-09 01:41 41.01840 -81.35444 6021 ft 201 kts 38°
2026-05-09 01:41 41.02861 -81.34209 6019 ft 201 kts 37°
2026-05-09 01:41 41.03875 -81.32944 6018 ft 200 kts 37°
2026-05-09 01:42 41.04883 -81.31681 6018 ft 199 kts 38°
2026-05-09 01:42 41.05889 -81.30418 6018 ft 199 kts 38°
2026-05-09 01:42 41.06897 -81.29158 6017 ft 199 kts 38°
2026-05-09 01:42 41.07905 -81.27898 6022 ft 199 kts 37°
2026-05-09 01:43 41.08910 -81.26630 6022 ft 199 kts 37°
2026-05-09 01:43 41.09911 -81.25361 6022 ft 199 kts 38°
2026-05-09 01:43 41.10909 -81.24106 6128 ft 194 kts 37°
2026-05-09 01:43 41.11867 -81.22898 6326 ft 186 kts 37°
2026-05-09 01:44 41.12771 -81.21742 6512 ft 180 kts 37°
2026-05-09 01:44 41.13657 -81.20589 6698 ft 177 kts 38°
2026-05-09 01:44 41.14536 -81.19456 6889 ft 175 kts 37°
2026-05-09 01:44 41.15415 -81.18319 7012 ft 180 kts 38°
2026-05-09 01:45 41.16338 -81.17130 7023 ft 189 kts 37°
2026-05-09 01:45 41.17287 -81.15899 7033 ft 193 kts 38°
2026-05-09 01:45 41.18259 -81.14656 7030 ft 195 kts 38°
2026-05-09 01:45 41.19250 -81.13405 7027 ft 198 kts 37°
2026-05-09 01:46 41.20252 -81.12143 7031 ft 199 kts 37°
2026-05-09 01:46 41.21256 -81.10873 7024 ft 199 kts 37°
2026-05-09 01:46 41.22259 -81.09603 7031 ft 199 kts 37°
2026-05-09 01:46 41.23242 -81.08350 7027 ft 197 kts 37°
2026-05-09 01:47 41.24233 -81.07088 7018 ft 196 kts 37°
2026-05-09 01:47 41.25213 -81.05839 7018 ft 195 kts 37°
2026-05-09 01:47 41.26191 -81.04590 7015 ft 195 kts 37°
2026-05-09 01:47 41.27168 -81.03340 7013 ft 195 kts 37°
2026-05-09 01:48 41.28148 -81.02094 7013 ft 195 kts 37°
2026-05-09 01:48 41.29127 -81.00847 7011 ft 194 kts 37°
2026-05-09 01:48 41.30102 -80.99597 7010 ft 195 kts 37°
2026-05-09 01:48 41.31080 -80.98345 7008 ft 195 kts 37°
2026-05-09 01:49 41.32058 -80.97099 7009 ft 195 kts 37°
2026-05-09 01:49 41.33032 -80.95858 7028 ft 194 kts 37°
2026-05-09 01:49 41.34004 -80.94611 7028 ft 195 kts 37°
2026-05-09 01:49 41.34981 -80.93362 7029 ft 195 kts 37°
2026-05-09 01:50 41.35630 -80.92533 7024 ft 195 kts 37°
2026-05-09 01:50 41.36926 -80.90878 7028 ft 195 kts 37°
2026-05-09 01:50 41.37906 -80.89619 7024 ft 196 kts 37°
2026-05-09 01:50 41.38568 -80.88765 7029 ft 196 kts 37°
2026-05-09 01:51 41.39538 -80.87515 7033 ft 197 kts 37°
2026-05-09 01:51 41.40521 -80.86248 7030 ft 197 kts 37°
2026-05-09 01:51 41.41510 -80.84980 7035 ft 198 kts 37°
2026-05-09 01:51 41.42499 -80.83708 7038 ft 197 kts 37°
2026-05-09 01:52 41.43484 -80.82440 7038 ft 197 kts 37°
2026-05-09 01:52 41.44471 -80.81167 7041 ft 197 kts 37°
2026-05-09 01:52 41.45458 -80.79896 7036 ft 197 kts 37°
2026-05-09 01:52 41.46442 -80.78631 7040 ft 196 kts 37°
2026-05-09 01:53 41.47426 -80.77362 7036 ft 197 kts 37°
2026-05-09 01:53 41.48410 -80.76090 7034 ft 196 kts 37°
2026-05-09 01:53 41.49390 -80.74827 7018 ft 196 kts 37°
2026-05-09 01:53 41.50374 -80.73561 7018 ft 196 kts 37°
2026-05-09 01:54 41.51349 -80.72311 7021 ft 197 kts 37°
2026-05-09 01:54 41.52333 -80.71045 7023 ft 196 kts 37°
2026-05-09 01:54 41.53315 -80.69778 7023 ft 196 kts 37°
2026-05-09 01:54 41.54298 -80.68511 7019 ft 196 kts 37°
2026-05-09 01:55 41.55282 -80.67248 7019 ft 196 kts 37°
2026-05-09 01:55 41.56265 -80.65986 7021 ft 196 kts 37°
2026-05-09 01:55 41.57246 -80.64727 7020 ft 195 kts 37°
2026-05-09 01:55 41.58227 -80.63467 7019 ft 196 kts 37°
2026-05-09 01:56 41.59208 -80.62206 7019 ft 196 kts 37°
2026-05-09 01:56 41.60179 -80.60958 7025 ft 197 kts 37°
2026-05-09 01:56 41.61184 -80.59675 7025 ft 197 kts 37°
2026-05-09 01:56 41.62167 -80.58427 7032 ft 197 kts 37°
2026-05-09 01:57 41.63158 -80.57169 7027 ft 196 kts 37°
2026-05-09 01:57 41.64145 -80.55916 7027 ft 196 kts 37°
2026-05-09 01:57 41.65131 -80.54659 7023 ft 196 kts 37°
2026-05-09 01:57 41.66114 -80.53406 7019 ft 195 kts 37°
2026-05-09 01:58 41.67094 -80.52156 7020 ft 195 kts 37°
2026-05-09 01:58 41.68076 -80.50900 7018 ft 195 kts 37°
2026-05-09 01:58 41.69056 -80.49647 7018 ft 195 kts 37°
2026-05-09 01:58 41.70038 -80.48393 7016 ft 195 kts 37°
2026-05-09 01:59 41.71010 -80.47156 7019 ft 195 kts 37°
2026-05-09 01:59 41.72010 -80.45885 7018 ft 196 kts 37°
2026-05-09 01:59 41.72982 -80.44644 7021 ft 195 kts 37°
2026-05-09 01:59 41.73965 -80.43389 7020 ft 195 kts 37°
2026-05-09 02:00 41.74949 -80.42133 7016 ft 196 kts 37°
2026-05-09 02:00 41.75936 -80.40875 7019 ft 195 kts 37°
2026-05-09 02:00 41.77037 -80.39961 7024 ft 178 kts
2026-05-09 02:00 41.78242 -80.39761 7029 ft 178 kts
2026-05-09 02:01 41.79445 -80.39284 7034 ft 181 kts
2026-05-09 02:01 41.80654 -80.38843 7037 ft 179 kts
2026-05-09 02:01 41.81869 -80.38450 7036 ft 179 kts
2026-05-09 02:01 41.83085 -80.38060 7037 ft 180 kts
2026-05-09 02:02 41.84302 -80.37667 7035 ft 180 kts
2026-05-09 02:02 41.85515 -80.37274 7035 ft 180 kts
2026-05-09 02:02 41.86718 -80.36882 7028 ft 180 kts
2026-05-09 02:02 41.87935 -80.36487 7024 ft 180 kts
2026-05-09 02:03 41.89150 -80.36091 7026 ft 179 kts
2026-05-09 02:03 41.90365 -80.35696 7026 ft 179 kts
2026-05-09 02:03 41.91578 -80.35302 7026 ft 179 kts
2026-05-09 02:03 41.92790 -80.34908 7027 ft 180 kts
2026-05-09 02:04 41.94005 -80.34513 7028 ft 179 kts
2026-05-09 02:04 41.95216 -80.34117 7031 ft 179 kts
2026-05-09 02:04 41.96429 -80.33723 7027 ft 179 kts
2026-05-09 02:04 41.97639 -80.33328 7028 ft 179 kts
2026-05-09 02:05 41.98849 -80.32933 7028 ft 178 kts
2026-05-09 02:05 42.00052 -80.32542 7037 ft 178 kts
2026-05-09 02:05 42.01263 -80.32151 7030 ft 179 kts
2026-05-09 02:05 42.02471 -80.31752 7030 ft 179 kts
2026-05-09 02:06 42.03662 -80.31361 7031 ft 178 kts
2026-05-09 02:06 42.04872 -80.30967 7030 ft 179 kts
2026-05-09 02:06 42.06078 -80.30572 7030 ft 178 kts
2026-05-09 02:07 42.08493 -80.29783 7034 ft 179 kts
2026-05-09 02:07 42.09704 -80.29386 7033 ft 179 kts
2026-05-09 02:07 42.10912 -80.28991 7034 ft 178 kts
2026-05-09 02:07 42.12122 -80.28595 7034 ft 179 kts
2026-05-09 02:08 42.13331 -80.28198 7031 ft 179 kts
2026-05-09 02:08 42.14539 -80.27803 7030 ft 178 kts
2026-05-09 02:08 42.15746 -80.27407 7029 ft 179 kts
2026-05-09 02:08 42.16940 -80.27015 7029 ft 178 kts
2026-05-09 02:09 42.18147 -80.26619 7029 ft 178 kts
2026-05-09 02:09 42.19355 -80.26222 7013 ft 179 kts
2026-05-09 02:09 42.20562 -80.25826 7012 ft 179 kts
2026-05-09 02:09 42.21770 -80.25429 7013 ft 179 kts
2026-05-09 02:10 42.22976 -80.25031 7016 ft 178 kts
2026-05-09 02:10 42.24184 -80.24634 7016 ft 178 kts
2026-05-09 02:10 42.25392 -80.24237 7016 ft 178 kts
2026-05-09 02:10 42.26598 -80.23840 7016 ft 178 kts
2026-05-09 02:11 42.27804 -80.23444 7018 ft 178 kts
2026-05-09 02:11 42.29013 -80.23045 7017 ft 179 kts
2026-05-09 02:11 42.30225 -80.22646 7018 ft 180 kts
2026-05-09 02:11 42.31442 -80.22245 7018 ft 180 kts
2026-05-09 02:12 42.32648 -80.21847 7012 ft 180 kts
2026-05-09 02:12 42.33867 -80.21445 7013 ft 180 kts
2026-05-09 02:12 42.35088 -80.21042 7013 ft 180 kts
2026-05-09 02:12 42.36310 -80.20639 7013 ft 180 kts
2026-05-09 02:13 42.37528 -80.20236 7013 ft 180 kts
2026-05-09 02:13 42.38748 -80.19833 7013 ft 180 kts
2026-05-09 02:13 42.39969 -80.19430 7013 ft 181 kts
2026-05-09 02:13 42.41188 -80.19027 7013 ft 181 kts
2026-05-09 02:14 42.42410 -80.18623 7014 ft 181 kts
2026-05-09 02:14 42.43633 -80.18218 7014 ft 181 kts
2026-05-09 02:14 42.44840 -80.17818 7014 ft 181 kts
2026-05-09 02:14 42.46078 -80.17408 7014 ft 181 kts
2026-05-09 02:15 42.47284 -80.17009 7016 ft 181 kts
2026-05-09 02:15 42.48508 -80.16602 7009 ft 181 kts
2026-05-09 02:15 42.49728 -80.16197 7010 ft 180 kts
2026-05-09 02:15 42.50948 -80.15793 7010 ft 180 kts
2026-05-09 02:16 42.52165 -80.15389 7010 ft 180 kts
2026-05-09 02:16 42.53382 -80.14985 7010 ft 180 kts
2026-05-09 02:16 42.54599 -80.14581 7010 ft 180 kts
2026-05-09 02:16 42.55816 -80.14177 7010 ft 180 kts
2026-05-09 02:17 42.57034 -80.13772 7012 ft 180 kts
2026-05-09 02:17 42.58249 -80.13367 7011 ft 179 kts
2026-05-09 02:17 42.59458 -80.12967 7018 ft 179 kts
2026-05-09 02:17 42.60666 -80.12568 7013 ft 178 kts
2026-05-09 02:18 42.61871 -80.12174 7011 ft 178 kts
2026-05-09 02:18 42.63073 -80.11782 7010 ft 178 kts
2026-05-09 02:18 42.64276 -80.11392 7010 ft 177 kts
2026-05-09 02:18 42.65480 -80.11006 7010 ft 177 kts
2026-05-09 02:19 42.66680 -80.10624 7012 ft 177 kts
2026-05-09 02:19 42.67881 -80.10243 7012 ft 177 kts
2026-05-09 02:19 42.69067 -80.09870 7012 ft 177 kts
2026-05-09 02:19 42.70269 -80.09495 7012 ft 177 kts
2026-05-09 02:20 42.71471 -80.09123 7013 ft 177 kts
2026-05-09 02:20 42.72673 -80.08755 7013 ft 177 kts
2026-05-09 02:20 42.73876 -80.08389 7012 ft 177 kts
2026-05-09 02:20 42.75080 -80.08027 7012 ft 177 kts
2026-05-09 02:21 42.76285 -80.07669 7012 ft 177 kts
2026-05-09 02:21 42.77487 -80.07314 7012 ft 177 kts
2026-05-09 02:21 42.78690 -80.06962 7012 ft 177 kts
2026-05-09 02:21 42.79889 -80.06551 7022 ft 178 kts 10°
2026-05-09 02:22 42.81071 -80.06100 7013 ft 178 kts
2026-05-09 02:22 42.82267 -80.05679 7015 ft 177 kts
2026-05-09 02:22 42.83482 -80.05262 6901 ft 181 kts
2026-05-09 02:22 42.84696 -80.04842 6776 ft 179 kts
2026-05-09 02:23 42.85900 -80.04427 6651 ft 178 kts
2026-05-09 02:23 42.87100 -80.04013 6527 ft 177 kts
2026-05-09 02:23 42.88295 -80.03601 6403 ft 177 kts
2026-05-09 02:23 42.89493 -80.03187 6278 ft 177 kts
2026-05-09 02:24 42.90686 -80.02775 6147 ft 177 kts 10°
2026-05-09 02:24 42.91881 -80.02434 6012 ft 173 kts 356°
2026-05-09 02:24 42.93004 -80.02869 5875 ft 166 kts 327°
2026-05-09 02:24 42.93993 -80.03658 5748 ft 165 kts 326°
2026-05-09 02:25 42.95002 -80.04412 5619 ft 165 kts 328°
2026-05-09 02:25 42.96023 -80.05145 5490 ft 166 kts 328°
2026-05-09 02:25 42.97034 -80.05863 5363 ft 166 kts 328°
2026-05-09 02:25 42.98060 -80.06594 5235 ft 166 kts 328°
2026-05-09 02:26 42.99082 -80.07321 5106 ft 166 kts 329°
2026-05-09 02:26 43.00104 -80.08049 5012 ft 164 kts 329°
2026-05-09 02:26 43.01105 -80.08763 5013 ft 160 kts 328°
2026-05-09 02:26 43.02140 -80.09284 5002 ft 163 kts 355°
2026-05-09 02:27 43.03264 -80.09062 5001 ft 163 kts
2026-05-09 02:27 43.04392 -80.08744 4920 ft 168 kts
2026-05-09 02:27 43.05543 -80.08424 4817 ft 170 kts
2026-05-09 02:27 43.06709 -80.08106 4719 ft 171 kts
2026-05-09 02:28 43.07877 -80.07790 4622 ft 171 kts
2026-05-09 02:28 43.09041 -80.07480 4508 ft 169 kts
2026-05-09 02:28 43.10172 -80.07180 4351 ft 167 kts
2026-05-09 02:28 43.11310 -80.06879 4193 ft 166 kts
2026-05-09 02:29 43.12444 -80.06581 4036 ft 166 kts
2026-05-09 02:29 43.13577 -80.06287 3865 ft 166 kts
2026-05-09 02:29 43.14690 -80.05999 3626 ft 158 kts
2026-05-09 02:29 43.15677 -80.05441 3380 ft 154 kts 43°
2026-05-09 02:30 43.16387 -80.04359 3154 ft 151 kts 49°
2026-05-09 02:30 43.17071 -80.03269 2762 ft 149 kts 50°
2026-05-09 02:30 43.17739 -80.02195 2327 ft 146 kts 50°
2026-05-09 02:30 43.18368 -80.01165 2024 ft 136 kts 51°
2026-05-09 02:31 43.18889 -80.00126 1717 ft 130 kts 72°
2026-05-09 02:31 43.18893 -79.98978 1502 ft 117 kts 105°
2026-05-09 02:31 43.18664 -79.97939 1344 ft 113 kts 111°
2026-05-09 02:31 43.18426 -79.96922 1178 ft 113 kts 110°
2026-05-09 02:32 43.18198 -79.95897 1018 ft 112 kts 110°
2026-05-09 02:32 43.17967 -79.94885 850 ft 110 kts 111°
2026-05-09 02:32 43.17751 -79.93931 782 ft 97 kts 108°
2026-05-09 02:32 43.17566 -79.93123 779 ft 73 kts 108°
2026-05-09 02:33 43.17449 -79.92628 779 ft 37 kts 106°
2026-05-09 02:33 43.17406 -79.92423 777 ft 18 kts 106°
2026-05-09 02:33 43.17374 -79.92288 776 ft 9 kts 99°
2026-05-09 02:33 43.17384 -79.92280 776 ft 0 kts 289°
2026-05-09 02:34 43.17387 -79.92305 776 ft 8 kts 276°
2026-05-09 02:34 43.17337 -79.92423 777 ft 23 kts 233°
2026-05-09 02:34 43.17208 -79.92639 778 ft 34 kts 227°
2026-05-09 02:34 43.17067 -79.92852 775 ft 19 kts 220°
2026-05-09 02:35 43.16970 -79.92789 779 ft 19 kts 150°
2026-05-09 02:35 43.16842 -79.92689 783 ft 22 kts 150°
2026-05-09 02:35 43.16696 -79.92573 786 ft 22 kts 151°
2026-05-09 02:35 43.16579 -79.92500 784 ft 16 kts 199°
2026-05-09 02:36 43.16521 -79.92622 779 ft 15 kts 286°
2026-05-09 02:36 43.16555 -79.92773 778 ft 21 kts 287°
2026-05-09 02:36 43.16607 -79.93004 778 ft 22 kts 286°
2026-05-09 02:36 43.16625 -79.93199 777 ft 19 kts 242°
2026-05-09 02:37 43.16581 -79.93274 777 ft 14 kts 231°
2026-05-09 02:37 43.16494 -79.93413 775 ft 24 kts 229°
2026-05-09 02:37 43.16398 -79.93535 771 ft 18 kts 195°
2026-05-09 02:37 43.16280 -79.93444 770 ft 22 kts 109°
2026-05-09 02:38 43.16250 -79.93309 772 ft 13 kts 107°
2026-05-09 02:38 43.16197 -79.93202 773 ft 13 kts 183°
2026-05-09 02:38 43.16142 -79.93215 772 ft 0 kts 81°